TimeMST,TemperatureF,Dew PointF,Humidity,Sea Level PressureIn,VisibilityMPH,Wind Direction,Wind SpeedMPH,Gust SpeedMPH,PrecipitationIn,Events,Conditions,WindDirDegrees,DateUTC
12:53 AM,39.0,21.9,50,29.81,10.0,WNW,19.6,-,N/A,,Overcast,300,2013-03-07 07:53:00
1:53 AM,37.9,17.1,43,29.82,10.0,NW,23.0,28.8,N/A,,Overcast,310,2013-03-07 08:53:00
2:53 AM,36.0,16.0,44,29.82,10.0,WNW,17.3,-,N/A,,Mostly Cloudy,300,2013-03-07 09:53:00
3:53 AM,33.1,15.1,48,29.83,10.0,NW,15.0,-,N/A,,Clear,310,2013-03-07 10:53:00
4:53 AM,32.0,12.9,45,29.87,10.0,WSW,9.2,-,N/A,,Clear,240,2013-03-07 11:53:00
5:53 AM,30.0,12.9,49,29.92,10.0,East,5.8,-,N/A,,Clear,100,2013-03-07 12:53:00
6:53 AM,30.9,18.0,59,29.94,10.0,SW,4.6,-,N/A,,Clear,230,2013-03-07 13:53:00
7:53 AM,33.1,10.0,38,29.96,10.0,West,6.9,-,N/A,,Clear,270,2013-03-07 14:53:00
8:53 AM,36.0,8.1,31,29.95,10.0,West,11.5,-,N/A,,Clear,280,2013-03-07 15:53:00
9:53 AM,41.0,8.1,26,29.94,10.0,WNW,10.4,-,N/A,,Clear,300,2013-03-07 16:53:00
10:53 AM,44.1,10.9,26,29.93,10.0,West,6.9,-,N/A,,Clear,270,2013-03-07 17:53:00
11:53 AM,46.0,10.0,23,29.92,10.0,North,3.5,-,N/A,,Clear,360,2013-03-07 18:53:00
12:53 PM,48.0,10.9,22,29.89,10.0,Variable,3.5,-,N/A,,Clear,0,2013-03-07 19:53:00
1:53 PM,48.0,14.0,26,29.87,10.0,ESE,5.8,-,N/A,,Clear,120,2013-03-07 20:53:00
2:53 PM,48.9,19.0,31,29.87,10.0,East,8.1,-,N/A,,Clear,100,2013-03-07 21:53:00
3:53 PM,48.9,21.9,35,29.88,10.0,ENE,6.9,-,N/A,,Clear,70,2013-03-07 22:53:00
4:53 PM,48.0,24.1,39,29.89,10.0,South,8.1,-,N/A,,Clear,170,2013-03-07 23:53:00
5:53 PM,45.0,24.1,44,29.92,10.0,SSE,8.1,-,N/A,,Clear,160,2013-03-08 00:53:00
6:53 PM,42.1,25.0,51,29.94,10.0,South,6.9,-,N/A,,Clear,170,2013-03-08 01:53:00
7:53 PM,42.1,21.9,45,29.94,10.0,SSW,8.1,-,N/A,,Clear,200,2013-03-08 02:53:00
8:53 PM,42.1,21.0,43,29.93,10.0,Calm,Calm,-,N/A,,Partly Cloudy,0,2013-03-08 03:53:00
9:53 PM,37.9,21.9,53,29.93,10.0,ENE,8.1,-,N/A,,Mostly Cloudy,70,2013-03-08 04:53:00
10:53 PM,37.9,24.1,57,29.91,10.0,ENE,11.5,-,N/A,,Overcast,70,2013-03-08 05:53:00
11:53 PM,37.9,21.0,51,29.90,10.0,ENE,9.2,-,N/A,,Overcast,70,2013-03-08 06:53:00